Regional Weather Roundup
Issued by NWS Sioux Falls, SD

Home | Current Version | Previous Version | Text Only | Print | Product List | Glossary On
Versions: 1 2 3 4 5 6 7 8 9 10 11 12 13 14 15 16 17 18 19 20 21 22 23 24 25 26 27 28 29 30 31 32 33 34 35 36 37 38 39 40 41 42 43 44 45 46 47 48 49 50
000
ASUS43 KFSD 060210
RWRFSD

WEATHER ROUNDUP FOR SE SOUTH DAKOTA/SW MINNESOTA/NW IOWA
NATIONAL WEATHER SERVICE SIOUX FALLS SD
900 PM CDT TUE MAY 05 2015

NOTE: "FAIR" INDICATES FEW OR NO CLOUDS BELOW 12,000 FEET WITH NO
SIGNIFICANT WEATHER AND OR OBSTRUCTIONS TO VISIBILITY.


SDZ038>040-050-052>070-060300-
SOUTHEAST SOUTH DAKOTA

CITY           SKY/WX    TMP DP  RH WIND       PRES   REMARKS
BROOKINGS      CLOUDY    61  57  88 SE16      30.00S
CHAMBERLAIN    CLOUDY    58  57  96 SE8       29.91S
HURON          CLOUDY    63  59  87 SE7       29.93F
MADISON        FAIR      63  59  88 SE14      29.99R
MITCHELL       CLOUDY    64  58  80 E6        29.94S
SIOUX FALLS    CLOUDY    64  58  80 E16       29.99R
WINNER         LGT RAIN  61  57  87 SE10      29.90S FOG
YANKTON        CLOUDY    70  57  64 SE8       29.94S
$$

MNZ071-072-080-081-089-090-097-098-060300-
SOUTHWEST MINNESOTA

CITY           SKY/WX    TMP DP  RH WIND       PRES   REMARKS
FAIRMONT       CLOUDY    55  50  82 SE14      30.08S
JACKSON        CLOUDY    57  54  88 E14       30.07S FOG
LUVERNE        CLOUDY    63  57  82 SE16      30.02S
MARSHALL       CLOUDY    59  52  77 SE14      30.04S
MONTEVIDEO     CLOUDY    61  54  77 S20       30.05S
REDWOOD FALLS  CLOUDY    58  53  84 SE16      30.06S
TRACY          CLOUDY    59  56  88 SE10      30.05R
WINDOM         CLOUDY    57  54  88 E12G17    30.06S
WORTHINGTON    CLOUDY    57  54  88 E14       30.04F
$$

IAZ001>003-012>014-020>022-031-032-NEZ013-014-SDZ071-060300-
NORTHWEST IOWA

CITY           SKY/WX    TMP DP  RH WIND       PRES   REMARKS
CHEROKEE       CLOUDY    64  64  99 E9G20     30.01S FOG
DENISON        CLOUDY    66  63  88 SE7       29.98F
ESTHERVILLE    CLOUDY    56  55  97 E16       30.06S FOG
LE MARS        CLOUDY    70  59  68 SE6       29.99S
ORANGE CITY    CLOUDY    63  61  94 E9        30.01S FOG
SHELDON        CLOUDY    61  61 100 SE17      30.01S FOG
SIOUX CITY     CLOUDY    68  58  70 E8        29.96F
SPENCER        CLOUDY    60  58  92 E14       30.04S
STORM LAKE     CLOUDY    64  64 100 E15       30.04S FOG
$$

ABBREVIATIONS USED IN REMARKS
   TC - TEMPERATURE IN CELSIUS
  WCI - WIND CHILL INDEX
   HX - HEAT INDEX
  VSB - VISIBILITY



USA.gov is the U.S. government's official web portal to all federal, state and local government web resources and services.